Tracking 35334 objects as of 13-Sep-2026
HD Live streaming from Space Station
objects crossing your sky now

COSMOS 1672 DEB


COSMOS 1672 DEB is no longer on orbit


NORAD ID: 15973
Int'l Code: 1985-067E
Launch date: August 7, 1985
Source: Commonwealth of Independent States (former USSR) (CIS)
Launch site: PLESETSK MISSILE AND SPACE COMPLEX (PKMTR)
Decay date: 1985-09-15

Note: This is SATELLITE DEBRIS
Your satellite tracking list
Your tracking list is empty




NASA's NSSDC Master Catalog

Two Line Element Set (TLE):
1 15973U 85067  E 85258.18371531  .29223171 +10204-4 +37099-2 0  9996
2 15973 082.2964 086.0922 0026892 255.0754 105.6280 16.34688934006167
Source of the keplerian elements: AFSPC